Regional Weather Roundup
Issued by NWS

Home | Current Version | Previous Version | Text Only | Print | Product List | Glossary Off
Versions: 1 2 3 4 5 6 7 8 9 10 11 12 13 14 15 16 17 18 19 20 21 22 23 24 25 26 27 28 29 30 31 32 33 34 35 36 37 38 39 40 41 42 43 44 45 46 47 48 49 50

221
ASUS45 KSLC 170310
RWRUT

UTAH REGIONAL WEATHER ROUNDUP
NATIONAL WEATHER SERVICE SALT LAKE CITY UT
900 PM MDT MON OCT 16 2017

UTZ001>011-023>025-170400-

NORTHERN UTAH

CITY           SKY/WX    TMP DP  RH WIND       PRES   REMARKS
BRIGHAM CITY   CLEAR     45  28  51 CALM      30.34S
HILL AFB       CLEAR     50  28  43 N3        30.33S
LOGAN          CLEAR     47  25  42 CALM      30.33R
OGDEN          CLEAR     48  28  46 SE3       30.32S
SALT LAKE CITY PTCLDY    52  36  54 CALM      30.32F
TOOELE VALLEY  CLEAR     34  28  80 S7        30.33F WCI  28
WENDOVER       CLEAR     45  20  36 NW3       30.33S
WEST JORDAN    CLEAR     45  25  45 CALM      30.34S

$$

UTZ011>015-024>027-170400-

CENTRAL/NORTHEAST UTAH

CITY           SKY/WX    TMP DP  RH WIND       PRES   REMARKS
PROVO AIRPORT  CLEAR     44  32  62 E5        30.33S
MOAB/CANYONLAN PTCLDY    49   8  19 CALM      30.32R
DELTA          MOCLDY    46  19  34 CALM      30.32S
PRICE          CLEAR     45   5  19 N12       30.37S
ROOSEVELT      CLOUDY    37  23  56 SW6       30.36S WCI  33
VERNAL         CLEAR     46  19  34 W9        30.33S

$$

UTZ013>016-019>022-027-170400-

SOUTHERN UTAH

CITY           SKY/WX    TMP DP  RH WIND       PRES   REMARKS
BRYCE CANYON   CLEAR     33   5  30 SW7       30.46R WCI  27
CEDAR CITY     CLEAR     52   0  12 SE8       30.32S
MILFORD        PTCLDY    42  13  30 CALM      30.31S
ST GEORGE      CLEAR     68   9  10 S5        30.18R
HANKSVILLE     PTCLDY    45   9  23 CALM      30.35S
BLANDING         N/A     47   6  18 N10       30.44S

$$

REGIONAL REPORTS     COLORADO/ARIZONA

CITY           SKY/WX    TMP DP  RH WIND       PRES   REMARKS
CRAIG, CO      CLOUDY    37  13  37 E5        30.37R WCI  33
GRAND JUNCTION CLOUDY    44  11  26 CALM      30.34S
RIFLE, CO      CLOUDY    48  11  22 SE6       30.37R
MONTROSE, CO   CLOUDY    43  17  35 SE8       30.41R
CORTEZ, CO     CLEAR     43  17  35 E8        30.38R
COLORADO CITY    N/A     46  12  25 SE5       30.31S
PAGE, AZ       CLEAR     56  14  19 S3        30.28R
GRAND CANYON   CLEAR     42   6  22 CALM      30.40S
KINGMAN, AZ    CLEAR     63  13  14 E8        30.20R
FLAGSTAFF, AZ  PTCLDY    47  18  31 CALM      30.43R

$$

REGIONAL REPORTS    NEVADA/IDAHO/WYOMING

CITY           SKY/WX    TMP DP  RH WIND       PRES   REMARKS
LAS VEGAS, NV  PTCLDY    72  18  13 SW5       30.13R
ELY, NY        CLEAR     40  -1  18 SW5       30.37R
ELKO, NV       PTCLDY    46  17  31 S3        30.31R
POCATELLO, ID  CLOUDY    41  29  62 E3        30.30F
BURLEY, ID     CLEAR     43  26  51 CALM      30.27S
FORT BRIDGER,    N/A     47   1  15 SW13      30.43S
EVANSTON, WY   CLOUDY    48   4  16 SW6       30.41S
ROCK SPRINGS,  CLOUDY    46   7  20 W9        30.36R
KEMMERER, WY   CLOUDY    43   9  24 W6        30.41S

$$




USA.gov is the U.S. government's official web portal to all federal, state and local government web resources and services.